Location: Morehouse Lake Observatory
(43.3628°N, 74.6770°W)
Time: 07:11:31
(UTC-05:00)

Envisat - Pass Details

Date: 26 October 2019
Orbit: 764 x 766 km, 98.1° (Epoch: 14 November)

Event Time Altitude Azimuth Distance (km) Brightness Sun altitude
Rises 19:46:16 0° 191° (S) 3,217 6.3 -20.1°
Reaches altitude 10° 19:48:47 10° 201° (SSW) 2,296 5.7 -20.6°
Maximum altitude 19:53:18 32° 264° (W) 1,287 4.8 -21.4°
Drops below altitude 10° 19:57:51 10° 328° (NNW) 2,310 5.9 -22.2°
Sets 20:00:24 0° 338° (NNW) 3,241 6.6 -22.7°
